Location: Fensholt
(55.9856°N, 10.0808°E)
Time: 02:15:37
(UTC+00:00)

STARLINK-1343 - Pass Details

Date: 07 June 2020
Orbit: 378 x 381 km, 53.0° (Epoch: 06 July)

Event Time Altitude Azimuth Distance (km) Brightness Sun altitude
Rises 01:29:55 0° 274° (W) 2,255 6.5 -6.5°
Reaches altitude 10° 01:32:05 10° 264° (W) 1,401 5.4 -6.3°
Maximum altitude 01:34:56 32° 199° (SSW) 682 3.6 -6.1°
Drops below altitude 10° 01:37:45 10° 134° (SE) 1,397 5.6 -5.9°
Sets 01:39:55 0° 124° (SE) 2,248 6.7 -5.7°
